EZY815D EGBB-EGAE

Flight info

Callsign EZY815D
Flight time 0h 49m
Altitude 28000
Route LUVUM DCT NANTI/N0400F240 Y53 WAL/N0423F280 UN864 BILVO UP6 TUPEM DCT NELBO/N0398F240 P6 BELZU
Aircraft A20N/M-SDE2E3FGHIRWXY/LB1

Departure

Time 2026-04-25 09:59
Airport Birmingham Airport (EGBB)

Arrival

Time 2026-04-25 10:49
Airport City of Derry Airport (EGAE)
Time Latitude Longitude Altitude Speed Heading
2026-04-25 09:40 52.45202 -1.73699 335 ft 0 kts 326°
2026-04-25 09:49 52.45189 -1.73684 331 ft 2 kts 325°
2026-04-25 09:50 52.45176 -1.73668 329 ft 2 kts 324°
2026-04-25 09:50 52.45162 -1.73652 329 ft 2 kts 325°
2026-04-25 09:50 52.45150 -1.73634 329 ft 2 kts 296°
2026-04-25 09:50 52.45150 -1.73608 332 ft 2 kts 244°
2026-04-25 09:51 52.45158 -1.73585 331 ft 2 kts 236°
2026-04-25 09:51 52.45162 -1.73577 332 ft 0 kts 235°
2026-04-25 09:53 52.45161 -1.73578 334 ft 1 kts 235°
2026-04-25 09:53 52.45147 -1.73613 333 ft 4 kts 237°
2026-04-25 09:53 52.45124 -1.73671 333 ft 8 kts 237°
2026-04-25 09:53 52.45104 -1.73758 334 ft 8 kts 277°
2026-04-25 09:54 52.45139 -1.73821 333 ft 8 kts 326°
2026-04-25 09:54 52.45183 -1.73870 332 ft 8 kts 326°
2026-04-25 09:54 52.45227 -1.73919 331 ft 8 kts 324°
2026-04-25 09:54 52.45271 -1.73971 332 ft 9 kts 324°
2026-04-25 09:55 52.45322 -1.74077 334 ft 15 kts 296°
2026-04-25 09:55 52.45371 -1.74239 331 ft 16 kts 297°
2026-04-25 09:55 52.45423 -1.74405 334 ft 17 kts 297°
2026-04-25 09:55 52.45475 -1.74566 329 ft 15 kts 307°
2026-04-25 09:56 52.45558 -1.74668 329 ft 15 kts 326°
2026-04-25 09:56 52.45645 -1.74764 330 ft 15 kts 326°
2026-04-25 09:56 52.45730 -1.74857 328 ft 14 kts 325°
2026-04-25 09:56 52.45817 -1.74955 326 ft 16 kts 325°
2026-04-25 09:57 52.45911 -1.75062 327 ft 17 kts 326°
2026-04-25 09:57 52.46015 -1.75179 325 ft 19 kts 324°
2026-04-25 09:57 52.46134 -1.75310 319 ft 22 kts 326°
2026-04-25 09:57 52.46217 -1.75419 316 ft 11 kts 295°
2026-04-25 09:58 52.46196 -1.75515 317 ft 8 kts 236°
2026-04-25 09:58 52.46166 -1.75582 318 ft 7 kts 234°
2026-04-25 09:58 52.46124 -1.75616 320 ft 7 kts 178°
2026-04-25 09:58 52.46072 -1.75571 319 ft 12 kts 145°
2026-04-25 09:59 52.45883 -1.75362 327 ft 67 kts 146°
2026-04-25 09:59 52.45251 -1.74652 334 ft 151 kts 145°
2026-04-25 09:59 52.44330 -1.73630 1018 ft 167 kts 146°
2026-04-25 09:59 52.43375 -1.72581 2134 ft 165 kts 146°
2026-04-25 10:00 52.42343 -1.71438 2767 ft 195 kts 146°
2026-04-25 10:00 52.41155 -1.70092 3478 ft 214 kts 142°
2026-04-25 10:00 52.40291 -1.68119 4445 ft 219 kts 104°
2026-04-25 10:00 52.40311 -1.65623 5330 ft 224 kts 79°
2026-04-25 10:01 52.40721 -1.63158 5901 ft 229 kts 66°
2026-04-25 10:01 52.41749 -1.61169 6699 ft 234 kts 28°
2026-04-25 10:01 52.43281 -1.60266 7638 ft 234 kts 13°
2026-04-25 10:01 52.44853 -1.59684 8574 ft 235 kts
2026-04-25 10:02 52.46516 -1.59556 9374 ft 244 kts 357°
2026-04-25 10:02 52.48287 -1.59728 9805 ft 270 kts 355°
2026-04-25 10:02 52.50215 -1.59964 10392 ft 285 kts 354°
2026-04-25 10:02 52.52167 -1.60679 11106 ft 296 kts 337°
2026-04-25 10:03 52.54142 -1.62051 11503 ft 319 kts 335°
2026-04-25 10:03 52.56242 -1.63607 11862 ft 342 kts 335°
2026-04-25 10:03 52.58453 -1.65251 12491 ft 354 kts 335°
2026-04-25 10:03 52.60726 -1.66924 13311 ft 360 kts 335°
2026-04-25 10:04 52.63015 -1.68591 14128 ft 365 kts 335°
2026-04-25 10:04 52.65349 -1.70281 14857 ft 370 kts 335°
2026-04-25 10:04 52.67725 -1.71999 15651 ft 374 kts 335°
2026-04-25 10:04 52.70123 -1.73727 16452 ft 378 kts 336°
2026-04-25 10:05 52.72518 -1.75418 17210 ft 381 kts 329°
2026-04-25 10:05 52.74570 -1.78201 17983 ft 383 kts 312°
2026-04-25 10:05 52.76264 -1.81644 18700 ft 387 kts 305°
2026-04-25 10:05 52.77826 -1.85301 19332 ft 391 kts 303°
2026-04-25 10:06 52.79387 -1.88969 19935 ft 395 kts 304°
2026-04-25 10:06 52.81037 -1.92647 20558 ft 399 kts 306°
2026-04-25 10:06 52.82765 -1.96279 21177 ft 404 kts 307°
2026-04-25 10:06 52.84566 -1.99893 21771 ft 408 kts 308°
2026-04-25 10:07 52.86389 -2.03449 22355 ft 412 kts 309°
2026-04-25 10:07 52.88273 -2.07074 22923 ft 417 kts 309°
2026-04-25 10:07 52.90181 -2.10730 23490 ft 421 kts 309°
2026-04-25 10:07 52.92113 -2.14440 23986 ft 425 kts 309°
2026-04-25 10:08 52.94028 -2.18132 24453 ft 428 kts 309°
2026-04-25 10:08 52.95977 -2.21901 24911 ft 431 kts 309°
2026-04-25 10:08 52.97942 -2.25716 25370 ft 433 kts 308°
2026-04-25 10:08 52.99887 -2.29502 25810 ft 436 kts 308°
2026-04-25 10:09 53.01859 -2.33351 26255 ft 438 kts 308°
2026-04-25 10:09 53.03846 -2.37237 26698 ft 441 kts 308°
2026-04-25 10:09 53.05821 -2.41102 27131 ft 443 kts 308°
2026-04-25 10:09 53.07825 -2.45032 27543 ft 446 kts 308°
2026-04-25 10:10 53.09841 -2.48989 27949 ft 448 kts 308°
2026-04-25 10:10 53.11867 -2.52972 28196 ft 449 kts 308°
2026-04-25 10:10 53.15777 -2.60946 28215 ft 441 kts 306°
2026-04-25 10:11 53.19458 -2.69090 28216 ft 440 kts 304°
2026-04-25 10:11 53.23092 -2.77277 28210 ft 440 kts 304°
2026-04-25 10:12 53.26749 -2.85484 28210 ft 441 kts 304°
2026-04-25 10:13 53.32250 -2.97797 28207 ft 441 kts 305°
2026-04-25 10:13 53.35909 -3.06015 28210 ft 440 kts 305°
2026-04-25 10:14 53.39789 -3.13906 28215 ft 443 kts 320°
2026-04-25 10:14 53.42452 -3.16532 28217 ft 445 kts 338°
2026-04-25 10:14 53.45466 -3.17717 28212 ft 448 kts 355°
2026-04-25 10:15 53.51666 -3.17191 28207 ft 449 kts
2026-04-25 10:15 53.57928 -3.16673 28206 ft 449 kts 359°
2026-04-25 10:16 53.64151 -3.17116 28206 ft 448 kts 355°
2026-04-25 10:16 53.69323 -3.17874 28209 ft 448 kts 354°
2026-04-25 10:17 53.75315 -3.20451 28213 ft 444 kts 328°
2026-04-25 10:17 53.77686 -3.23690 28213 ft 441 kts 310°
2026-04-25 10:17 53.79382 -3.27994 28214 ft 438 kts 293°
2026-04-25 10:18 53.81393 -3.37678 28207 ft 439 kts 287°
2026-04-25 10:18 53.83707 -3.47275 28204 ft 441 kts 295°
2026-04-25 10:19 53.86699 -3.56346 28201 ft 442 kts 300°
2026-04-25 10:19 53.89976 -3.65140 28217 ft 442 kts 302°
2026-04-25 10:20 53.93295 -3.73950 28204 ft 443 kts 301°
2026-04-25 10:20 53.96567 -3.82778 28209 ft 443 kts 301°
2026-04-25 10:21 53.99828 -3.91686 28210 ft 443 kts 301°
2026-04-25 10:21 54.03065 -4.00578 28208 ft 444 kts 301°
2026-04-25 10:22 54.06323 -4.09558 28211 ft 444 kts 301°
2026-04-25 10:22 54.09545 -4.18467 28206 ft 444 kts 301°
2026-04-25 10:23 54.12784 -4.27456 28206 ft 444 kts 301°
2026-04-25 10:23 54.15999 -4.36408 28209 ft 444 kts 301°
2026-04-25 10:24 54.19219 -4.45407 28213 ft 445 kts 301°
2026-04-25 10:24 54.22452 -4.54476 28203 ft 445 kts 301°
2026-04-25 10:25 54.25661 -4.63509 28208 ft 445 kts 301°
2026-04-25 10:25 54.28859 -4.72546 28209 ft 446 kts 300°
2026-04-25 10:26 54.32075 -4.81669 28210 ft 446 kts 300°
2026-04-25 10:26 54.35260 -4.90735 28203 ft 446 kts 300°
2026-04-25 10:27 54.38470 -4.99906 28203 ft 446 kts 300°
2026-04-25 10:27 54.41640 -5.08997 28200 ft 447 kts 300°
2026-04-25 10:28 54.44835 -5.18194 28205 ft 447 kts 300°
2026-04-25 10:28 54.48017 -5.27388 28202 ft 448 kts 300°
2026-04-25 10:29 54.50561 -5.37127 28204 ft 447 kts 288°
2026-04-25 10:29 54.52426 -5.47348 28208 ft 447 kts 285°
2026-04-25 10:30 54.54197 -5.57565 28194 ft 447 kts 286°
2026-04-25 10:30 54.55108 -5.62677 27892 ft 445 kts 286°
2026-04-25 10:30 54.56033 -5.67775 27546 ft 442 kts 287°
2026-04-25 10:30 54.56953 -5.72780 27206 ft 432 kts 287°
2026-04-25 10:31 54.57841 -5.77589 26834 ft 423 kts 287°
2026-04-25 10:31 54.58729 -5.82394 26264 ft 416 kts 287°
2026-04-25 10:31 54.59605 -5.87147 25645 ft 415 kts 287°
2026-04-25 10:31 54.60467 -5.91842 25041 ft 413 kts 287°
2026-04-25 10:32 54.61328 -5.96546 24447 ft 409 kts 287°
2026-04-25 10:32 54.62183 -6.01234 23858 ft 406 kts 286°
2026-04-25 10:32 54.63027 -6.05871 23181 ft 402 kts 286°
2026-04-25 10:32 54.63859 -6.10453 22508 ft 398 kts 286°
2026-04-25 10:33 54.64670 -6.14933 21855 ft 393 kts 286°
2026-04-25 10:33 54.65484 -6.19442 21217 ft 392 kts 286°
2026-04-25 10:33 54.66341 -6.23921 20580 ft 392 kts 288°
2026-04-25 10:33 54.67251 -6.28362 19958 ft 390 kts 288°
2026-04-25 10:34 54.68153 -6.32731 19356 ft 389 kts 288°
2026-04-25 10:34 54.69064 -6.37126 18760 ft 387 kts 288°
2026-04-25 10:34 54.69975 -6.41507 18118 ft 385 kts 288°
2026-04-25 10:34 54.70882 -6.45860 17442 ft 383 kts 288°
2026-04-25 10:35 54.71770 -6.50135 16795 ft 380 kts 288°
2026-04-25 10:35 54.72663 -6.54437 16152 ft 378 kts 288°
2026-04-25 10:35 54.73545 -6.58687 15526 ft 376 kts 288°
2026-04-25 10:35 54.74430 -6.62951 14907 ft 374 kts 288°
2026-04-25 10:36 54.75303 -6.67171 14328 ft 371 kts 288°
2026-04-25 10:36 54.76171 -6.71366 13815 ft 366 kts 288°
2026-04-25 10:36 54.77016 -6.75446 13300 ft 358 kts 288°
2026-04-25 10:36 54.77842 -6.79433 12764 ft 343 kts 288°
2026-04-25 10:37 54.78639 -6.83262 12255 ft 330 kts 288°
2026-04-25 10:37 54.79399 -6.86908 11769 ft 320 kts 288°
2026-04-25 10:37 54.80157 -6.90537 11266 ft 311 kts 288°
2026-04-25 10:37 54.80877 -6.93975 10786 ft 304 kts 288°
2026-04-25 10:38 54.81574 -6.97401 10300 ft 297 kts 283°
2026-04-25 10:38 54.81869 -7.00888 9799 ft 288 kts 270°
2026-04-25 10:38 54.81888 -7.04342 9268 ft 282 kts 267°
2026-04-25 10:38 54.81868 -7.07672 8763 ft 276 kts 267°
2026-04-25 10:39 54.81839 -7.10953 8358 ft 268 kts 267°
2026-04-25 10:39 54.81810 -7.14157 8001 ft 262 kts 267°
2026-04-25 10:39 54.81805 -7.17296 7746 ft 261 kts 272°
2026-04-25 10:39 54.82109 -7.20410 7484 ft 262 kts 281°
2026-04-25 10:40 54.82551 -7.23451 7119 ft 262 kts 283°
2026-04-25 10:40 54.83010 -7.26504 6734 ft 261 kts 283°
2026-04-25 10:40 54.83466 -7.29556 6331 ft 259 kts 283°
2026-04-25 10:40 54.83915 -7.32551 5919 ft 254 kts 283°
2026-04-25 10:41 54.84361 -7.35497 5520 ft 249 kts 283°
2026-04-25 10:41 54.84798 -7.38354 5130 ft 246 kts 283°
2026-04-25 10:41 54.85237 -7.41197 4759 ft 239 kts 283°
2026-04-25 10:41 54.85813 -7.43853 4384 ft 235 kts 296°
2026-04-25 10:42 54.86643 -7.46269 3966 ft 229 kts 300°
2026-04-25 10:42 54.87504 -7.48598 3590 ft 229 kts 300°
2026-04-25 10:42 54.88513 -7.50643 3282 ft 219 kts 325°
2026-04-25 10:42 54.89897 -7.51418 3061 ft 207 kts
2026-04-25 10:43 54.91307 -7.51126 2794 ft 201 kts 14°
2026-04-25 10:43 54.92656 -7.50522 2535 ft 198 kts 18°
2026-04-25 10:43 54.93961 -7.49878 2534 ft 193 kts 18°
2026-04-25 10:43 54.95200 -7.49279 2517 ft 177 kts 18°
2026-04-25 10:44 54.96364 -7.48691 2493 ft 174 kts 21°
2026-04-25 10:44 54.97451 -7.47798 2517 ft 174 kts 35°
2026-04-25 10:44 54.98308 -7.46353 2483 ft 170 kts 60°
2026-04-25 10:44 54.98864 -7.44552 2527 ft 168 kts 72°
2026-04-25 10:45 54.99339 -7.42674 2507 ft 168 kts 71°
2026-04-25 10:45 54.99748 -7.40810 2499 ft 166 kts 73°
2026-04-25 10:45 55.00138 -7.38902 2426 ft 167 kts 74°
2026-04-25 10:45 55.00523 -7.36999 2209 ft 166 kts 74°
2026-04-25 10:46 55.00883 -7.35145 2047 ft 154 kts 75°
2026-04-25 10:46 55.01217 -7.33445 1938 ft 144 kts 74°
2026-04-25 10:46 55.01547 -7.31804 1783 ft 144 kts 74°
2026-04-25 10:46 55.01853 -7.30172 1674 ft 143 kts 76°
2026-04-25 10:47 55.02136 -7.28525 1430 ft 141 kts 76°
2026-04-25 10:47 55.02406 -7.26877 1226 ft 141 kts 78°
2026-04-25 10:47 55.02664 -7.25258 1027 ft 136 kts 73°
2026-04-25 10:47 55.02951 -7.23690 784 ft 135 kts 73°
2026-04-25 10:48 55.03204 -7.22150 611 ft 133 kts 72°
2026-04-25 10:48 55.03493 -7.20604 489 ft 135 kts 71°
2026-04-25 10:48 55.03766 -7.19037 256 ft 133 kts 72°
2026-04-25 10:48 55.04039 -7.17495 58 ft 131 kts 72°
2026-04-25 10:49 55.04270 -7.16179 26 ft 82 kts 74°
2026-04-25 10:49 55.04340 -7.15767 27 ft 24 kts 73°
2026-04-25 10:49 55.04359 -7.15635 27 ft 1 kts 10°
2026-04-25 10:49 55.04362 -7.15644 26 ft 1 kts 295°
2026-04-25 10:50 55.04356 -7.15687 28 ft 5 kts 257°
2026-04-25 10:50 55.04341 -7.15782 26 ft 14 kts 253°
2026-04-25 10:50 55.04285 -7.15943 29 ft 13 kts 195°
2026-04-25 10:50 55.04198 -7.15919 22 ft 9 kts 167°
2026-04-25 10:51 55.04132 -7.15893 22 ft 10 kts 167°
2026-04-25 10:51 55.04079 -7.15847 25 ft 6 kts 124°
2026-04-25 10:51 55.04075 -7.15774 24 ft 6 kts 82°
2026-04-25 10:51 55.04073 -7.15706 24 ft 5 kts 123°
2026-04-25 10:52 55.04049 -7.15689 24 ft 2 kts 184°
2026-04-25 10:52 55.04033 -7.15686 24 ft 2 kts 169°
2026-04-25 10:52 55.04022 -7.15682 24 ft 0 kts 168°